sat.trackr.live / text

‹ back to catalog

TRANSPORTER-16 OBJECT Q

NORAD 68430 · 2026-067Q

PAYLOAD ACTIVE UNKNOWN

§ Identity

Operator
Country
TBD
Launch date
2026-03-30
Launch site
AFWTR
Launch vehicle
Mass (kg)
RCS (m²)

External: N2YO · Heavens-Above · Gunter

§ Orbital elements

Epoch: 2026-05-24T20:37:16.585536Z

Period
94.82 min
Inclination
97.4481°
Eccentricity
0.0002648
Mean motion
15.18690179 rev/d
Perigee alt
508.0 km
Apogee alt
511.6 km
Semi-major
6,887.9 km
B*
2.8728e-4
RAAN
103.6693°
Arg perigee
82.3236°
Mean anomaly
277.8299°
Rev number
840

§ Raw data

TRANSPORTER-16 OBJECT Q1 68430U 26067Q   26144.85921974  .00005891  00000+0  28728-3 0  99962 68430  97.4481 103.6693 0002648  82.3236 277.8299 15.18690179  8401

JSON: /api/v1/satellites/68430 · /tle

For live sub-satellite position, see the globe view (requires WebGL).

§ Visibility from observer

Set your observer location to see the next 7 days of passes ≥ 10°. The values pass through the URL so the page stays shareable.

No JS? Fill the form by hand. The geolocation button needs JavaScript.

§ Radio — SatNOGS DB

ModeDescriptionDownlinkUplink
FM S-band telemetry 2.219 GHz

1 transmitter · refreshed weekly from db.satnogs.org